Location: Sortland
(68.7020°N, 15.4240°E)
Time: 18:39:06
(UTC+01:00)

Envisat - Pass Details

Date: 26 October 2019
Orbit: 764 x 766 km, 98.1° (Epoch: 19 November)

Event Time Altitude Azimuth Distance (km) Brightness Sun altitude
Rises 20:53:50 0° 226° (SW) 3,236 6.5 -23.3°
Reaches altitude 10° 20:57:06 10° 249° (WSW) 2,313 6.0 -23.5°
Maximum altitude 21:00:08 16° 286° (WNW) 1,948 6.0 -23.8°
Drops below altitude 10° 21:03:11 10° 323° (NW) 2,320 6.4 -24.0°
Sets 21:06:29 0° 345° (NNW) 3,250 6.9 -24.3°
